Theta_e
308 308 308 308 311 314 313 313 312 311 310 310 309 308 307 305 301 295 288 287 284 276 279 280 280 276 277 275 269 274 275 274 270 266 264 265 265 266 267 267 272 272 268 265 262 264 270 274 275 270 268 268 267 267
306 307 306 307 308 312 313 312 312 311 310 310 309 308 307 304 301 296 288 289 287 279 279 283 282 282 281 281 277 278 277 277 275 268 264 265 265 263 263 266 276 269 273 268 269 268 269 268 269 270 267 265 265 270
305 306 307 307 306 309 312 312 311 310 310 309 309 308 306 304 301 295 289 287 285 278 279 280 275 280 283 281 284 274 278 280 275 274 270 267 266 273 267 268 273 276 278 273 273 273 268 268 271 271 272 273 274 274
303 304 305 304 304 306 311 311 311 310 310 309 308 307 305 303 299 295 290 289 285 277 272 271 284 281 281 282 285 284 281 282 281 278 278 266 265 275 272 274 273 276 277 275 275 275 272 273 274 273 273 273 273 272
302 303 303 303 303 304 309 310 310 310 309 308 307 306 304 301 298 292 289 288 286 283 271 275 279 280 282 281 284 285 285 283 281 278 275 267 276 277 276 277 275 277 276 274 273 277 276 275 274 275 274 273 272 271
301 301 302 302 301 303 305 309 309 308 308 307 306 304 303 299 297 292 286 287 286 282 272 266 275 277 280 282 283 283 283 282 282 279 278 280 281 278 274 272 277 278 279 281 278 277 275 274 274 274 273 272 272 270
300 300 300 301 301 303 303 309 309 308 307 306 305 304 301 300 291 287 286 286 287 282 273 268 270 278 278 279 280 280 281 279 279 279 277 278 279 278 276 271 276 278 278 275 275 274 271 272 271 271 269 267 265 263
299 299 300 300 300 302 302 308 308 307 306 305 303 302 300 296 292 286 285 290 284 278 273 268 266 271 278 275 273 278 276 276 273 273 275 275 274 274 270 275 276 275 274 272 273 270 273 272 270 268 267 265 263 264
299 299 299 301 300 301 302 307 307 306 304 302 299 299 293 288 285 284 290 287 281 280 271 264 266 264 276 275 275 274 277 271 267 269 271 268 259 266 272 274 276 274 276 274 268 267 267 269 267 265 264 264 264 263
299 299 300 301 300 301 302 306 305 302 300 301 296 286 281 282 291 290 284 281 280 272 268 266 261 265 275 275 272 271 271 267 263 262 263 257 262 268 271 273 275 276 274 272 267 264 261 261 266 265 265 266 266 264
298 299 300 300 301 300 304 304 301 301 300 287 281 277 284 291 285 281 277 277 271 269 269 267 265 269 273 267 265 268 259 257 258 259 260 253 259 267 264 273 274 278 274 276 271 274 273 272 269 267 264 264 263 262
298 298 300 299 299 300 303 300 302 293 288 287 283 285 282 282 279 279 275 265 265 270 264 270 267 268 269 267 264 265 259 257 261 253 256 259 268 267 259 265 272 277 274 276 264 272 270 270 270 269 267 265 263 262
297 297 299 298 299 301 301 302 300 294 293 287 284 279 280 277 276 274 270 265 261 267 268 268 266 267 267 266 260 259 259 261 254 255 262 267 267 261 258 258 261 262 271 268 260 261 265 265 267 268 266 262 261 260
296 297 299 297 299 301 302 298 297 297 288 285 281 276 278 275 273 273 273 273 271 272 270 269 264 265 260 262 259 262 255 255 256 257 265 269 267 263 262 257 265 268 270 270 267 263 264 265 264 258 266 263 262 260
296 297 298 296 299 302 298 298 299 288 289 284 284 281 276 271 264 261 264 269 270 274 270 266 263 267 257 260 258 257 257 258 262 268 269 270 262 259 263 260 263 267 268 268 264 263 262 261 261 256 258 261 262 260
296 297 293 298 299 300 299 299 288 286 284 284 282 277 267 271 266 265 268 271 271 273 266 266 260 262 261 261 259 263 264 265 270 266 268 259 257 257 261 262 262 264 264 264 263 263 262 261 262 261 256 260 260 260
296 286 296 297 300 299 299 287 289 284 283 279 276 273 273 274 275 273 274 273 275 274 269 263 265 267 261 258 260 262 267 271 269 267 258 257 258 259 258 261 261 262 263 262 258 258 258 257 258 258 258 255 258 259
291 294 298 299 298 293 286 285 285 282 275 272 268 268 268 271 272 272 271 275 275 272 268 269 266 261 264 266 267 270 267 264 258 259 258 256 254 254 261 263 261 263 263 261 262 258 258 259 260 262 262 257 256 255
294 294 298 299 293 287 284 280 282 272 266 264 267 270 270 269 270 271 273 271 270 272 271 269 268 267 270 270 271 266 261 262 266 262 257 254 253 255 258 259 260 260 261 261 260 261 261 262 263 262 260 259 260 258
297 297 298 297 293 285 279 276 279 271 265 265 269 269 268 269 270 271 272 270 273 273 273 268 271 273 274 271 267 267 266 264 262 263 263 258 254 254 258 261 262 260 259 257 257 259 257 255 255 260 260 261 260 258
295 297 295 286 279 276 274 271 269 270 269 268 269 270 268 271 271 272 272 271 272 269 270 273 275 275 266 259 256 258 261 263 263 266 267 260 255 256 255 255 259 261 260 259 259 258 259 261 260 259 260 261 261 261
289 291 284 283 275 273 271 266 269 269 267 268 270 271 269 269 270 271 270 271 267 272 273 275 274 265 262 262 258 256 256 257 255 257 259 259 258 257 256 258 260 261 261 261 261 261 260 260 259 259 260 260 260 260
291 289 284 281 276 274 270 269 270 270 269 268 271 270 267 267 267 267 269 267 270 270 268 266 263 259 258 255 254 255 254 258 259 257 256 256 255 255 260 261 263 262 261 260 261 262 261 260 260 260 261 260 260 259
287 281 279 276 275 269 271 269 266 268 267 268 271 264 263 264 265 268 268 266 268 268 264 262 262 263 260 261 261 257 256 254 257 257 255 257 258 257 256 258 260 259 260 262 262 262 261 261 261 261 260 260 260 260
283 277 277 270 268 266 263 261 262 263 262 264 264 264 263 262 266 264 265 266 266 263 260 259 261 261 261 260 258 257 254 255 257 259 259 258 256 257 257 255 256 258 259 262 262 262 261 261 261 261 261 261 260 260
274 271 270 264 262 267 265 265 266 265 267 268 264 263 266 268 270 272 265 258 259 258 256 255 255 256 258 257 257 258 258 255 254 258 260 257 259 259 258 258 257 259 260 262 263 262 262 262 262 261 261 262 262 261
271 263 260 259 265 265 265 263 267 270 269 266 262 262 266 266 272 262 258 255 255 256 256 256 255 255 255 255 256 255 256 256 256 259 258 257 257 258 260 259 259 261 261 263 264 263 262 262 262 262 262 261 262 262
261 259 266 263 267 269 271 269 269 270 267 264 268 267 270 268 261 254 254 255 255 255 256 258 257 255 254 255 256 256 257 258 259 259 259 260 259 257 256 256 257 265 260 263 264 264 264 264 263 262 262 261 262 263
260 258 264 264 261 260 257 259 264 262 257 262 267 264 255 251 251 251 253 253 254 255 256 256 257 258 259 259 259 259 258 259 260 259 258 257 258 259 258 257 256 257 257 259 265 264 263 264 263 263 263 263 263 263
260 257 263 263 263 258 255 253 254 255 259 257 256 254 252 252 253 254 253 252 251 252 253 254 255 255 255 255 255 257 256 256 257 256 254 255 257 259 257 257 257 258 259 261 262 264 268 265 266 263 262 262 262 261
257 260 260 262 261 259 258 257 257 258 260 258 257 254 252 252 252 253 254 252 253 253 252 251 252 253 252 252 252 253 254 255 257 257 257 258 258 257 256 258 260 261 261 261 262 263 263 262 261 261 260 260 260 260
262 261 266 264 260 258 258 260 260 260 260 259 256 253 252 254 252 252 254 254 252 251 252 252 251 251 253 253 253 254 256 256 257 258 258 258 257 257 258 259 261 262 262 262 262 261 261 261 260 260 259 259 259 259
258 258 260 261 262 260 257 259 259 258 257 255 252 253 251 251 250 251 253 253 252 251 251 252 253 253 253 253 254 255 257 258 259 263 265 265 263 262 261 262 262 262 262 262 261 261 260 260 259 259 259 259 258 258
Wind_Speed
14 11 10 11 10 18 25 26 26 28 28 28 26 25 24 22 17 6 2 2 4 4 1 2 1 3 0 3 2 4 3 4 5 6 4 2 3 2 2 3 2 3 4 3 2 6 4 12 4 7 2 2 3 6
16 15 11 10 11 14 22 26 27 27 27 28 27 26 25 23 17 8 4 1 2 7 3 2 3 3 2 1 3 3 3 1 1 4 2 3 2 2 2 1 2 3 3 3 2 5 3 4 4 2 3 3 2 1
13 13 8 6 7 14 19 23 27 28 30 30 30 29 28 25 18 6 4 4 5 4 3 2 1 3 3 4 2 4 1 2 1 4 3 2 4 3 2 3 1 1 3 2 2 3 2 2 0 1 2 3 4 4
13 11 10 9 8 11 16 21 26 29 30 30 30 29 28 25 18 10 4 4 5 4 5 5 1 3 4 4 2 2 3 1 2 2 1 2 4 3 2 3 3 4 4 5 1 2 3 3 3 5 4 5 6 6
18 10 10 9 7 9 12 21 26 29 30 32 32 30 29 26 19 9 4 2 2 6 5 2 2 4 1 5 2 1 1 1 0 1 1 1 1 1 1 1 5 7 8 6 6 8 5 3 8 8 8 6 6 8
22 16 11 8 5 8 11 21 25 29 31 33 32 32 29 28 20 5 3 2 3 4 7 2 3 3 2 2 2 2 3 2 1 0 1 1 1 1 1 4 6 7 7 7 6 6 4 9 7 6 6 6 5 6
23 21 14 9 7 8 14 19 25 28 31 33 33 32 30 24 5 4 3 1 7 3 5 3 1 2 1 1 2 2 3 1 1 1 1 1 1 1 3 5 6 12 8 7 12 13 4 4 7 8 7 6 6 5
20 20 18 12 9 10 12 20 25 28 31 35 34 31 28 25 14 5 4 5 3 6 4 5 1 0 1 2 1 1 1 2 3 1 1 1 2 1 8 12 1 7 8 6 12 2 4 11 10 8 6 7 6 6
21 20 16 13 12 12 10 20 27 31 34 38 37 31 9 5 3 2 6 7 3 4 4 3 6 5 2 2 2 2 1 2 2 2 2 1 3 10 14 9 13 14 14 14 6 6 7 9 12 11 9 8 8 9
18 18 15 13 10 10 8 22 31 42 43 38 15 5 3 1 18 9 5 3 4 4 4 3 0 4 3 2 3 3 2 2 3 4 1 3 9 10 11 9 7 15 10 21 11 3 3 4 14 15 16 14 11 13
17 14 12 11 6 4 9 35 44 44 29 6 5 4 3 11 3 3 2 2 1 3 2 3 3 7 1 5 4 1 3 1 2 5 4 3 9 9 5 16 10 18 16 21 2 6 11 12 20 18 11 11 9 12
17 15 12 11 4 7 37 49 45 12 4 11 15 8 4 2 3 5 4 1 3 7 1 5 4 4 2 3 5 1 4 3 5 1 4 6 11 7 3 6 12 17 18 18 4 9 11 13 14 14 13 13 10 10
17 15 13 13 4 16 48 45 30 43 27 6 6 6 4 1 4 9 10 5 3 7 7 5 3 4 3 3 5 4 4 5 1 3 7 11 5 4 5 4 5 5 10 10 5 4 6 7 9 11 12 6 9 11
17 17 16 10 4 30 46 39 44 23 8 5 6 8 6 5 7 7 8 6 2 6 11 5 5 4 2 5 3 6 2 3 3 2 11 6 7 5 7 4 7 13 15 13 10 8 9 10 8 4 9 12 13 13
17 15 16 9 4 40 40 40 31 5 4 5 5 8 9 3 3 1 1 4 2 8 6 5 4 3 2 5 2 5 4 5 8 9 7 5 4 4 8 7 7 9 11 12 9 9 8 8 9 6 7 10 10 11
16 13 7 17 7 37 39 24 6 3 2 3 2 5 2 4 1 1 1 4 2 8 3 4 5 5 2 6 5 10 9 10 7 7 5 1 2 4 4 5 5 6 5 5 6 7 10 12 13 11 7 9 10 13
17 3 17 19 20 38 25 6 3 4 4 4 2 1 2 1 5 4 4 4 7 4 4 5 6 7 5 3 3 7 9 7 5 4 3 3 4 5 5 6 6 7 8 8 6 5 3 6 9 9 11 8 9 10
2 6 7 17 31 14 5 4 4 4 4 3 2 1 4 2 3 4 2 8 6 3 4 5 7 4 7 7 6 7 7 4 3 3 2 3 3 4 5 8 7 8 9 8 7 7 7 9 10 7 7 9 7 6
6 10 13 39 15 8 4 3 3 5 2 2 2 1 1 3 3 4 2 3 2 1 6 2 3 5 6 5 5 4 3 3 3 3 3 2 3 5 5 5 6 6 9 9 9 9 8 9 6 6 7 10 8 7
15 8 30 24 8 5 5 3 2 5 3 2 2 2 3 4 3 1 4 2 0 1 1 3 6 4 4 3 4 4 3 3 4 2 3 2 2 4 5 6 6 6 5 5 4 6 5 3 1 6 8 9 9 10
13 20 21 9 5 7 5 2 5 3 4 4 2 1 4 2 2 2 3 1 2 3 4 4 4 3 0 1 2 1 1 3 4 3 3 1 1 2 3 2 5 6 5 6 8 6 7 7 6 6 7 7 5 6
8 16 5 5 6 4 5 2 5 3 5 3 2 2 4 2 3 3 3 1 5 5 4 2 1 2 3 2 3 1 2 2 2 3 4 5 4 2 3 5 6 7 8 8 9 9 8 5 7 7 7 6 7 7
13 4 5 4 7 5 3 1 5 2 5 3 1 4 1 1 1 0 2 4 5 1 3 3 2 1 3 3 2 3 2 1 1 2 2 2 1 2 4 6 6 6 6 5 4 5 6 9 9 8 7 8 8 7
11 6 4 4 5 5 3 3 3 4 4 3 4 3 2 2 1 1 4 4 1 2 4 7 4 3 1 2 4 2 4 2 1 2 1 2 0 2 1 3 3 2 2 5 6 5 6 7 10 9 9 9 9 9
7 3 5 5 3 7 6 3 2 4 3 4 4 2 3 3 3 4 5 2 3 3 5 6 5 4 3 3 2 2 3 3 3 3 2 2 2 1 2 2 0 2 3 5 5 7 7 8 9 10 11 11 13 12
7 2 3 5 2 6 7 7 8 7 5 4 2 2 2 2 4 5 1 3 4 4 5 6 6 5 2 3 3 4 5 4 3 2 3 1 2 3 2 2 1 3 4 4 7 8 9 9 10 12 11 12 14 13
4 2 2 2 3 5 4 2 1 5 5 7 6 5 5 6 7 3 2 4 3 3 5 5 3 3 4 6 4 2 4 3 3 4 5 4 3 3 2 3 4 5 5 8 8 10 12 12 12 12 11 10 11 12
4 3 7 3 3 2 5 4 5 7 5 3 8 7 9 3 2 2 2 4 5 6 6 4 2 2 4 4 3 4 4 4 5 4 4 2 2 2 3 3 3 3 2 5 7 7 9 10 11 12 13 12 11 10
3 3 4 4 3 4 4 2 2 2 2 1 4 3 4 4 3 4 4 6 6 4 4 5 5 6 4 2 2 2 2 5 7 6 6 4 4 4 6 4 3 1 1 2 5 5 7 8 9 10 11 9 10 10
1 0 4 3 5 3 1 2 1 2 3 3 6 5 4 3 2 3 4 5 6 5 5 5 5 6 6 6 6 7 3 3 5 3 2 3 4 7 6 4 2 1 2 2 2 4 9 7 10 9 10 9 9 10
1 2 5 5 4 2 2 1 1 1 3 4 3 5 5 4 1 2 7 6 5 4 4 6 6 4 6 7 6 6 5 3 8 7 4 4 5 5 4 3 1 1 1 2 3 5 8 8 9 10 11 12 12 11
4 4 3 5 3 2 1 1 1 3 2 3 4 4 4 3 4 3 5 5 4 5 6 5 5 5 5 5 5 5 8 7 7 7 7 4 3 4 3 2 0 1 2 3 6 9 9 9 9 9 10 13 13 13
3 2 2 5 4 2 1 3 5 4 6 5 5 3 2 1 3 2 2 2 2 4 6 6 6 5 6 6 6 7 7 6 8 9 9 4 3 2 1 1 2 4 7 7 6 8 9 11 10 11 12 13 14 14
Wind_Direction
207 213 221 247 259 207 198 194 188 185 183 179 174 171 162 157 153 112 97 10 116 110 135 149 345 127 51 97 135 279 31 353 25 56 95 220 99 241 35 250 338 335 352 346 4 41 15 9 356 71 173 11 9 355
211 219 216 244 259 223 203 194 190 187 181 174 170 167 159 156 155 123 107 51 75 79 143 100 107 64 357 83 139 350 132 54 146 88 28 100 60 27 148 326 325 12 146 186 136 209 251 302 127 294 136 134 312 64
216 205 198 215 272 258 196 197 191 184 177 174 170 163 159 156 160 112 117 142 72 94 19 62 218 337 35 11 272 109 321 188 70 177 165 162 110 130 115 251 254 280 167 120 87 255 259 245 316 127 155 133 105 89
213 205 204 224 253 315 200 202 193 186 178 170 165 158 155 152 142 115 134 155 92 110 111 278 131 59 318 348 338 125 137 341 121 98 356 131 128 175 208 181 210 207 133 134 291 288 318 234 196 155 141 118 104 76
202 202 205 223 259 294 227 199 191 186 176 166 159 155 151 145 122 90 84 158 131 126 157 163 31 347 348 359 351 26 88 89 15 108 69 266 191 129 307 285 240 180 176 172 209 174 156 159 167 161 156 151 140 134
199 200 198 219 275 261 288 197 190 180 172 165 157 150 146 138 131 106 25 224 155 117 103 105 253 342 338 328 313 90 28 31 9 244 214 265 156 207 240 239 247 192 176 158 174 128 85 125 136 138 136 138 135 125
200 203 208 217 251 256 301 193 188 178 168 157 148 145 139 135 80 100 199 211 144 99 96 87 76 1 334 3 10 54 40 32 19 274 252 298 173 267 247 243 239 186 156 126 128 118 65 207 184 147 130 114 87 87
191 198 205 208 228 249 301 184 171 163 155 143 134 127 116 105 105 48 352 76 76 89 69 120 215 117 272 137 144 48 107 32 27 317 327 290 347 284 249 234 274 114 106 130 169 49 142 122 115 122 118 130 130 141
191 193 199 201 211 242 306 177 167 147 132 121 114 104 77 46 94 120 124 77 58 121 156 116 152 194 193 161 120 42 67 237 291 224 202 73 259 227 223 200 180 174 171 169 113 80 102 135 147 152 140 156 158 168
182 177 186 188 211 221 287 160 143 128 125 119 93 81 114 35 122 128 18 33 355 334 37 139 50 146 173 134 147 100 350 216 241 250 86 142 256 263 233 210 171 173 161 144 121 124 120 157 173 174 189 181 178 170
180 181 177 163 195 226 209 138 133 131 122 69 102 83 102 132 84 60 117 170 316 295 157 149 155 137 291 130 166 119 172 164 57 255 140 284 271 244 220 187 177 173 169 185 162 155 179 168 173 173 179 184 168 164
184 186 183 149 205 250 147 140 141 115 102 126 108 101 107 120 80 154 178 7 198 220 215 138 184 139 143 108 103 193 132 56 236 156 68 269 251 245 179 188 171 171 171 184 180 161 160 160 174 176 172 175 173 163
190 192 181 155 230 177 146 150 123 121 119 80 76 98 166 188 165 187 187 245 237 172 177 164 134 124 104 76 71 102 100 214 47 52 234 235 259 269 211 162 146 139 152 135 139 106 122 135 144 162 163 157 147 155
193 196 186 151 152 173 151 137 136 139 83 95 137 140 182 187 236 185 191 183 160 124 143 124 110 136 150 75 144 106 243 76 36 295 237 248 241 231 168 158 140 175 168 165 163 151 156 161 163 138 159 154 155 165
191 196 170 159 258 172 145 146 147 64 105 141 141 178 197 152 45 318 188 103 84 137 126 105 67 94 57 96 61 108 49 252 212 231 233 244 257 198 166 170 181 172 172 166 155 158 154 145 156 142 149 154 153 144
193 187 165 169 207 156 147 138 66 81 63 133 130 106 18 78 358 54 262 111 196 149 104 59 115 86 195 138 117 210 142 220 242 222 241 230 241 209 171 169 155 140 150 144 162 161 153 163 168 162 143 160 159 163
179 184 174 176 175 154 141 89 100 60 93 127 139 98 130 47 133 156 153 157 150 145 164 125 114 186 101 64 250 195 207 219 219 250 235 210 219 201 171 143 150 145 146 144 128 121 126 99 119 137 164 186 166 168
119 146 133 185 151 103 42 37 92 93 95 66 117 9 64 6 109 120 91 142 145 173 142 196 126 134 189 178 238 231 231 249 213 228 232 233 239 235 175 170 158 163 156 153 152 132 133 152 170 190 163 156 140 148
135 158 171 147 129 101 105 73 38 100 109 136 107 155 175 115 61 44 109 104 52 46 115 93 115 202 221 217 224 252 244 202 222 227 232 241 225 203 173 130 144 146 154 160 164 174 177 181 178 156 150 158 175 169
133 183 152 145 83 82 93 61 61 100 104 172 70 53 43 66 71 104 117 58 201 156 126 191 220 221 201 233 213 216 200 147 136 43 296 243 194 161 177 161 164 135 117 108 101 126 129 115 140 157 162 174 162 177
173 147 127 80 62 55 78 118 65 80 129 100 152 80 69 73 108 137 143 57 300 228 236 207 239 258 10 295 266 293 99 146 197 157 216 188 200 139 135 141 137 147 150 167 173 185 188 197 168 160 166 175 169 161
107 113 93 78 85 71 77 3 115 148 75 99 146 139 110 160 147 147 114 169 237 249 202 214 315 330 332 336 304 330 300 123 82 82 58 113 114 141 198 187 163 184 187 185 182 183 187 164 149 159 166 157 146 146
107 79 66 84 87 62 81 343 67 31 111 150 61 84 75 219 77 205 150 220 251 17 22 18 358 293 268 285 332 9 342 153 220 251 236 208 247 172 138 164 187 184 194 204 170 160 163 146 158 157 152 152 152 148
55 60 88 89 84 101 110 78 59 96 97 121 125 141 224 170 189 190 239 238 206 67 23 356 348 319 311 13 40 3 332 350 325 291 217 154 239 277 212 173 182 190 177 140 166 161 149 159 154 155 158 161 166 165
102 41 84 75 43 107 96 98 78 61 129 172 117 156 197 135 196 199 228 277 35 38 4 351 2 14 17 323 326 349 1 21 1 316 271 157 118 52 27 23 274 204 153 141 169 163 162 161 168 166 168 170 170 171
87 10 110 158 142 120 166 141 182 168 126 118 113 93 125 190 204 234 140 15 7 3 352 353 353 340 357 36 322 341 339 349 317 285 308 209 211 178 184 181 184 274 207 165 164 176 177 174 175 172 172 174 171 164
97 268 315 231 121 108 89 81 124 96 138 164 163 161 151 204 220 85 72 38 308 347 318 312 312 313 303 309 299 284 300 303 278 293 302 287 256 226 167 171 209 235 174 185 182 179 179 176 175 177 172 169 175 173
154 150 138 219 77 24 94 80 134 186 169 160 128 186 189 184 133 1 344 348 338 319 308 310 269 256 266 271 282 305 313 308 276 252 256 250 47 33 349 316 303 259 191 199 193 182 180 179 176 174 170 168 164 166
72 310 84 64 81 57 57 62 87 50 340 237 114 106 101 58 360 332 324 330 322 320 350 353 360 341 332 320 287 326 340 356 13 17 16 351 347 356 354 325 323 20 91 98 180 167 171 168 169 169 163 155 148 143
359 114 93 76 76 85 237 189 160 321 36 67 103 111 90 96 44 330 353 3 8 357 337 340 349 2 356 1 350 358 23 19 45 36 351 330 316 313 313 310 326 23 81 120 122 160 164 144 139 128 129 133 134 134
207 52 75 55 79 55 56 37 70 100 69 68 21 76 99 129 68 26 21 2 333 325 355 9 357 1 1 359 355 345 336 330 349 333 293 281 284 290 281 273 259 107 114 102 140 136 129 124 130 134 136 136 141 135
31 40 91 105 110 139 206 137 99 83 57 57 61 77 74 70 58 16 17 340 330 353 352 349 353 337 326 303 282 266 263 285 301 306 295 283 293 284 284 302 345 103 93 91 105 121 128 131 137 138 135 133 130 126
87 74 83 111 116 122 344 70 39 65 37 46 40 54 49 100 124 255 287 333 315 308 323 318 303 294 284 282 283 297 303 292 298 321 331 341 313 321 3 19 54 92 106 111 115 120 121 124 121 123 122 120 117 116